COSMOS 1275 DEB, 12727

Orbit data source: Space-Track

COSMOS 1275 DEB, 12727 is space debris in LEO originally from a launch on Thu, 04 Jun 1981 UTC launched from the Plesetsk Missile And Space Complex (PKMTR). Debris objects in space refer to the collection of defunct objects orbiting the Earth. Examples of debris include non-operational satellites, rocket bodies, and fragments generated from explosions, collisions, or faulty payload assembly.

Loading next visibility...
Identifier
12727, 1981-053BU
Orbit
LEO
Country
Flag of CISCIS
Related business
Manufacturer
Unknown
Mission
Spacecraft
Bus & Motor
Unknown
Mass
Unknown
Launch date (UTC)
1981-06-04 (44 years ago)
Launch vehicle
Unknown
Launch site
Plesetsk Missile And Space Complex (PKMTR)
Object type
Payload
Rocket body
Debris
Shape & HBR
Unknown shape, 0.2 m
Radar Cross Section
Medium (>0.1 m² and <1 m²)

Expand to show TLE details & history
Last TLE update: 23 hours ago

TLE from 23 hours ago
0 COSMOS 1275 DEB
1 12727U 81053BU  25308.17103831  .00001484  00000-0  10844-2 0  9994
2 12727  83.2893 179.1482 0091915  37.2327  88.5076 13.93365789226935
Epoch: 2025-11-04T04:06Z
TLE epoch observation values (Epoch: 2025-11-04T04:06:17.709Z)
Latitude
52.78307°
Longitude
-114.9526°
Altitude
924.34 km
Speed
7.395 km/s
True Right ascension
23h 21m 07s
True Declination
52° 37' 16"
Sunlit
Object was in full shadow at epoch
Visualization orbit readout
Latitude
Unknown
Longitude
Unknown
Altitude
Unknown
Speed
Unknown
Apparent Right ascension
Unknown
Apparent Declination
Unknown
Sunlit
N/A
Visualization observer readout
Local Sidereal Time
23:06:19
Azimuth
Unknown
Elevation
Unknown
Doppler factor
Unknown
Orbital elements
Apogee altitude
980.995 km
Perigee altitude
846.944 km
Semi-major axis
7,292.106 km
Eccentricity
0.00919
Inclination
83.2893°
RAAN
179.1482°
Arg. of periapsis
37.2327°
True anomaly
89.56077°
Mean anomaly
88.5076°
Eccentric anomaly
89.03416°
Mean motion
3.48549 °/min
Orbital period
103.29 mins
BSTAR
0.0010844
Loading maneuver chart data...
Computing Atmospheric mass density...

Documentation

Showing up to 5 results
|